ATLAS 5 CENTAUR DEB, 43968

Orbit data source: Space-Track

ATLAS 5 CENTAUR DEB, 43968 is space debris in HEO originally from a launch on Wed, 17 Sep 2014 UTC launched from the Air Force Eastern Test Range (AFETR). Debris objects in space refer to the collection of defunct objects orbiting the Earth. Examples of debris include non-operational satellites, rocket bodies, and fragments generated from explosions, collisions, or faulty payload assembly.

Loading next visibility...
Identifier
43968, 2014-055X
Orbit
HEO
Country
Flag of USUS
Related business
Flag of USUnited Launch Alliance/Lockheed Martin (US)
Manufacturer
Unknown
Mission
Spacecraft
Bus & Motor
Unknown
Mass
Unknown
Launch date (UTC)
2014-09-17 (11 years ago)
Launch vehicle
Unknown
Launch site
Air Force Eastern Test Range (AFETR)
Object type
Payload
Rocket body
Debris
Shape & HBR
Unknown shape, 1.1 m
Radar Cross Section
Small (<0.1 m²)

Expand to show TLE details & history
Last TLE update: 5 days ago

TLE from 5 days ago
0 ATLAS 5 CENTAUR DEB
1 43968U 14055X   25282.96775176 -.00000012  00000-0  00000-0 0  9996
2 43968  19.7944 156.4015 5099802 140.6195 270.6068  1.83131330 47493
Epoch: 2025-10-09T23:13Z
TLE epoch observation values (Epoch: 2025-10-09T23:13:33.752Z)
Latitude
0.00002°
Longitude
149.24835°
Altitude
28,085.019 km
Speed
3.001 km/s
True Right ascension
10h 25m 50s
True Declination
0° 00' 00"
Sunlit
Object was in daylight at epoch
Visualization orbit readout
Latitude
Unknown
Longitude
Unknown
Altitude
Unknown
Speed
Unknown
Apparent Right ascension
Unknown
Apparent Declination
Unknown
Sunlit
N/A
Visualization observer readout
Local Sidereal Time
08:50:48
Azimuth
Unknown
Elevation
Unknown
Doppler factor
Unknown
Orbital elements
Apogee altitude
36,236.897 km
Perigee altitude
7,451.323 km
Semi-major axis
28,222.247 km
Eccentricity
0.50998
Inclination
19.7944°
RAAN
156.4015°
Arg. of periapsis
140.6195°
True anomaly
219.38635°
Mean anomaly
270.6068°
Eccentric anomaly
244.28165°
Mean motion
0.45778 °/min
Orbital period
786.41 mins
BSTAR
0
Loading maneuver chart data...
Computing Atmospheric mass density...

Documentation

Showing up to 5 results
|